CAPE
66 43 54 76 66 58 50 59 82 97 137 130 123 128 118 103 83 33 5 3 26 34 3 0 0 0 0 2 0 0 46 37 75 54 12 12 66 4 22 10 1 30 101 28 39 35 8 0 0 0 0 0 0 0
66 46 58 91 71 50 52 51 58 121 120 112 111 113 95 96 82 90 36 5 42 61 12 0 0 0 0 0 1 0 23 14 51 18 19 9 5 4 24 14 0 67 72 128 146 100 0 0 0 0 0 0 0 0
49 55 52 48 68 47 38 52 87 68 79 71 93 71 63 65 80 87 31 1 44 34 15 8 0 0 0 0 0 11 0 4 62 54 78 26 4 3 44 27 98 0 0 0 2 0 0 0 0 0 0 0 0 0
39 33 37 32 57 55 54 56 56 49 46 42 43 40 35 37 51 89 29 3 6 103 16 0 0 1 0 0 0 0 0 87 117 92 68 28 13 1 53 45 68 69 0 0 0 1 0 0 0 0 0 0 0 0
34 46 59 46 59 59 59 52 29 17 23 26 30 39 40 42 46 35 21 10 2 2 17 0 0 0 0 0 0 0 0 2 46 47 23 14 10 44 1 1 1 0 0 0 13 0 0 0 0 0 0 0 0 0
39 40 43 30 75 46 12 12 22 30 25 44 48 50 39 36 44 9 0 8 6 0 47 39 0 0 0 0 0 0 0 1 50 88 34 26 11 22 9 11 0 0 0 0 0 0 0 0 0 0 0 0 0 0
39 31 32 41 18 12 23 27 18 16 14 25 33 49 49 60 26 1 0 0 12 7 88 45 1 8 0 0 2 6 0 20 53 20 27 23 27 60 16 5 0 0 0 0 0 0 6 3 5 1 1 0 0 0
22 27 33 6 16 22 16 16 20 13 10 18 21 33 26 49 5 13 0 8 6 4 52 37 44 78 10 17 34 48 27 35 41 45 57 22 20 20 20 0 0 0 0 0 0 0 0 2 2 1 0 0 0 0
26 21 4 13 17 13 14 15 13 18 16 17 8 35 42 1 1 8 4 23 9 8 13 17 38 116 26 78 24 15 12 30 19 20 2 1 3 3 0 0 0 0 0 1 1 0 0 0 0 0 0 0 0 0
11 7 12 15 4 8 14 13 12 5 4 0 0 0 0 13 19 30 6 2 0 5 18 2 0 81 40 28 16 0 1 1 0 0 2 49 5 0 0 0 0 0 0 0 1 2 1 1 0 0 0 0 0 0
14 13 5 6 15 17 21 16 20 9 15 1 1 0 19 26 0 3 2 16 13 9 5 1 0 5 4 8 9 0 0 1 1 2 8 1 2 0 0 0 0 0 0 0 0 0 0 0 0 0 0 0 0 0
23 4 9 11 9 13 32 30 9 0 0 0 0 3 4 1 1 0 0 5 0 1 6 4 3 0 10 1 0 3 1 2 2 1 11 1 0 0 0 0 0 0 1 0 0 0 0 0 0 0 0 0 0 0
25 0 12 18 7 22 20 16 15 13 0 0 0 0 0 0 0 0 0 5 0 0 6 5 2 1 4 3 4 1 1 0 0 1 0 0 1 2 1 1 2 3 1 0 1 0 0 0 0 0 0 0 0 0
1 0 0 8 0 9 1 2 17 2 0 0 0 0 0 0 0 0 0 0 0 0 1 0 1 2 2 0 1 0 1 0 2 0 0 0 2 2 1 0 0 1 0 0 0 0 0 0 0 0 0 0 0 0
2 0 0 0 0 0 0 0 0 0 0 0 0 1 0 0 0 0 0 0 0 0 0 1 2 0 0 0 0 0 0 0 0 0 0 0 1 0 0 0 0 0 0 0 0 0 0 0 0 0 0 0 0 0
2 0 0 0 0 0 0 0 0 0 0 0 0 0 0 0 2 1 0 1 0 0 0 0 1 2 1 0 0 0 0 0 0 1 1 2 0 0 0 0 0 0 0 0 0 0 0 0 0 0 0 0 0 0
0 0 0 0 0 0 0 0 0 0 0 0 0 0 0 0 0 0 0 0 0 0 0 0 0 0 0 0 0 2 1 2 2 1 1 0 0 0 0 0 0 0 0 0 0 0 0 0 0 0 0 0 0 0
0 0 0 0 0 0 0 0 0 0 0 0 0 0 0 1 1 1 0 0 0 0 0 0 0 0 1 0 0 1 0 0 0 0 0 0 0 0 0 0 0 0 0 0 0 0 0 0 0 0 0 0 0 0
0 0 0 0 0 0 0 0 0 0 0 1 0 0 0 0 0 0 0 0 0 0 0 0 0 2 2 2 1 0 1 0 0 0 0 0 0 0 0 0 0 0 0 0 0 0 0 0 0 0 0 0 0 0
0 0 0 0 0 0 0 0 0 0 0 0 0 0 0 0 0 0 0 0 0 0 0 0 1 1 1 2 2 1 1 0 0 0 0 0 0 0 0 0 0 0 0 0 0 0 0 0 0 0 0 0 0 0
0 0 0 0 0 0 0 0 0 0 0 0 0 0 0 0 0 0 0 0 0 1 0 1 1 1 0 1 3 3 2 1 0 0 0 0 0 0 0 0 0 0 0 0 0 0 0 0 0 0 0 0 0 0
0 0 0 0 0 0 0 0 0 0 0 0 0 0 0 0 0 0 0 0 0 1 1 0 0 0 0 0 1 0 1 1 0 0 0 0 0 0 0 0 0 0 0 0 0 0 0 0 0 0 0 0 0 0
0 0 0 0 0 0 0 0 0 0 0 0 0 0 0 0 0 0 0 1 0 2 0 0 0 0 0 0 0 0 0 0 0 0 0 0 0 0 0 0 0 0 0 0 0 0 0 0 0 0 0 0 0 0
0 0 0 0 0 0 0 0 0 0 0 0 0 0 0 0 0 0 0 0 2 1 0 0 0 0 0 0 0 0 0 0 0 0 0 0 0 0 0 0 0 0 0 0 0 0 0 0 0 0 0 0 0 0
0 0 0 0 0 0 0 0 0 0 0 0 0 0 0 0 0 0 0 0 0 0 0 0 0 0 0 0 0 0 0 0 0 0 0 0 0 0 0 0 0 0 0 0 0 0 0 0 0 0 0 0 0 0
0 0 0 0 0 0 0 0 0 0 0 0 0 0 0 0 0 0 0 0 0 0 0 0 0 0 0 0 0 0 0 0 0 0 0 0 0 0 0 0 0 0 0 0 0 0 0 0 0 0 0 0 0 0
0 0 0 0 0 0 0 0 0 0 0 0 0 0 0 0 0 0 0 0 0 0 0 1 0 0 0 0 0 0 0 0 0 0 0 0 0 0 0 0 0 0 0 0 0 0 0 0 0 0 0 0 0 0
2 0 0 0 0 0 0 0 0 0 0 0 0 0 0 0 0 0 0 0 0 0 0 0 0 0 0 0 0 0 0 0 0 0 0 0 0 0 0 0 0 0 0 0 0 0 0 0 0 0 0 0 0 0
0 0 0 0 0 0 0 0 0 0 0 0 0 0 0 0 0 0 0 0 0 0 0 0 0 0 0 0 0 0 0 0 0 0 0 0 0 0 0 0 0 0 0 0 0 0 0 0 0 0 0 0 0 0
0 0 0 0 0 0 0 0 0 0 0 0 0 0 0 0 0 0 0 0 0 0 0 0 0 0 0 0 0 0 0 0 0 0 0 0 0 0 0 0 0 0 0 0 1 1 2 2 1 0 0 0 0 0
0 0 0 0 0 0 0 0 0 0 0 0 0 0 0 0 0 0 0 0 0 0 0 0 0 0 0 0 0 0 0 0 0 0 0 0 0 0 0 0 0 1 1 0 0 0 0 0 0 0 0 0 0 0
0 0 0 0 0 0 0 0 0 0 0 0 0 0 0 0 0 0 0 0 0 0 0 0 0 0 0 0 0 0 0 0 0 0 0 0 0 0 0 0 0 1 1 0 0 0 0 0 0 0 0 0 0 0
0 0 0 0 0 0 0 0 0 0 0 0 0 0 0 0 0 0 0 0 0 0 0 0 0 0 0 0 0 0 0 0 0 0 0 0 0 0 0 0 0 0 0 0 1 1 0 0 0 0 0 0 0 0
CIN
0 0 0 0 0 0 -1 -2 -2 -1 -1 0 0 0 0 0 0 -7 -2 -21 -2 0 -2 0 0 0 0 -7 0 -2 -8 -26 -3 0 -1 0 0 -7 -2 -6 -5 -4 -4 -7 -2 0 0 0 0 0 0 0 0 0
0 0 -1 -2 0 0 0 0 0 0 0 0 0 0 0 0 0 -1 -1 -15 -2 0 -2 0 0 0 0 0 -35 -1 -6 -48 -15 -23 -10 -8 0 -16 -3 -1 -8 -2 -16 -8 -13 -12 0 0 0 0 0 0 0 0
0 0 0 0 0 0 0 0 0 0 0 0 0 0 0 0 0 -1 -1 -7 0 0 0 0 0 0 0 0 0 -6 0 -5 -6 -23 -7 -6 0 -5 -8 -15 -15 -16 0 0 -2 0 0 0 0 0 0 0 0 0
0 0 0 0 0 0 0 -1 0 0 0 0 0 0 0 0 0 0 -1 -4 -5 0 0 -1 0 -3 0 0 0 0 0 -12 -8 -8 -1 0 0 -4 -21 -5 -18 -18 -16 0 0 0 0 0 0 0 0 0 0 0
0 0 0 0 0 0 0 0 0 -1 0 0 0 0 0 0 0 0 0 -1 -1 -1 0 0 0 0 0 0 0 0 0 -13 -5 -1 0 0 0 0 0 0 0 0 0 0 -21 0 0 0 0 0 0 0 0 0
0 0 0 0 0 0 -5 0 0 0 0 0 0 0 0 0 0 0 0 0 -1 0 -2 -1 0 0 0 0 0 0 0 -2 -2 0 0 -6 -3 0 0 0 0 0 0 0 -1 0 0 0 0 0 0 0 0 0
0 0 -2 0 -4 0 0 0 0 0 0 0 0 0 0 0 0 0 0 0 0 -6 0 0 -2 -4 0 0 0 -1 -1 -1 -1 0 0 0 0 0 0 0 0 0 0 0 0 0 0 0 0 0 0 0 0 0
0 0 0 -3 0 0 0 0 0 0 0 0 0 0 0 0 0 0 0 0 -2 -1 0 0 -3 0 -1 0 0 -2 0 0 0 0 0 0 -1 0 0 0 0 0 0 0 0 0 0 0 0 0 0 0 0 0
0 0 0 0 0 0 0 0 0 0 0 0 -1 0 0 0 0 0 0 0 -6 -2 -4 -9 0 0 -8 -6 -7 -1 -4 0 0 0 0 -1 0 0 0 0 0 0 0 0 0 0 0 0 0 0 0 0 0 0
0 0 0 0 -1 0 0 0 -1 -1 -2 0 0 0 0 0 0 0 0 0 0 -4 -5 0 0 -1 -5 -1 -1 0 0 0 0 0 0 0 0 0 0 0 0 0 0 0 0 0 0 0 0 0 0 0 0 0
0 0 0 -2 0 -1 -1 -1 -1 -1 -1 -1 0 0 0 -5 0 0 0 0 0 -1 -10 0 0 0 -6 -2 -4 0 0 0 0 0 0 0 0 0 0 0 0 0 0 0 0 0 0 0 0 0 0 0 0 0
0 -1 -2 -2 -3 -3 -1 0 -2 0 0 0 0 0 0 0 0 0 0 0 0 -7 -1 0 -1 0 0 0 0 0 -14 0 0 0 0 0 0 0 0 0 0 0 0 0 0 0 0 0 0 0 0 0 0 0
0 0 -4 -11 -18 -10 -2 -2 -5 -4 0 0 0 0 0 0 0 0 0 0 0 0 0 0 0 0 0 0 -2 0 0 0 0 0 0 0 0 0 0 0 0 0 0 0 0 0 0 0 0 0 0 0 0 0
-3 0 -14 -16 -20 -41 -21 -9 -37 -8 0 0 0 0 0 0 0 0 0 0 0 0 0 0 0 0 0 0 0 0 0 0 0 0 0 0 0 0 0 0 0 0 0 0 0 0 0 0 0 0 0 0 0 0
-4 -13 0 0 -35 -11 0 0 0 0 0 0 0 0 0 0 0 0 0 0 0 0 0 0 0 0 0 0 0 0 0 0 0 0 0 0 0 0 0 0 0 0 0 0 0 0 0 0 0 0 0 0 0 0
-3 0 0 0 0 0 0 0 0 0 0 0 0 0 0 0 0 0 0 0 0 0 0 0 0 0 0 0 0 0 0 0 0 0 0 0 0 0 0 0 0 0 0 0 0 0 0 0 0 0 0 0 0 0
0 0 0 0 0 0 0 0 0 0 0 0 0 0 0 0 0 0 0 0 0 0 0 0 0 0 0 0 0 0 0 0 0 0 0 0 0 0 0 0 0 0 0 0 0 0 0 0 0 0 0 0 0 0
0 0 0 0 0 0 0 0 0 0 0 0 0 0 0 0 0 0 0 0 0 0 0 0 0 0 0 0 0 0 0 0 0 0 0 0 0 0 0 0 0 0 0 0 0 0 0 0 0 0 0 0 0 0
0 0 0 0 0 0 0 0 0 0 0 0 0 0 0 0 0 0 0 0 0 0 0 0 0 -1 0 0 0 0 0 0 0 0 0 0 0 0 0 0 0 0 0 0 0 0 0 0 0 0 0 0 0 0
0 0 0 0 0 0 0 0 0 0 0 0 0 0 0 0 0 0 0 0 0 0 0 0 0 0 0 0 0 0 0 0 0 0 0 0 0 0 0 0 0 0 0 0 0 0 0 0 0 0 0 0 0 0
0 0 0 0 0 0 0 0 0 0 0 0 0 0 0 0 0 0 0 0 0 0 0 0 0 0 0 0 0 0 0 0 0 0 0 0 0 0 0 0 0 0 0 0 0 0 0 0 0 0 0 0 0 0
0 0 0 0 0 0 0 0 0 0 0 0 0 0 0 0 0 0 0 0 0 0 0 0 0 0 0 0 0 0 0 0 0 0 0 0 0 0 0 0 0 0 0 0 0 0 0 0 0 0 0 0 0 0
0 0 0 0 0 0 0 0 0 0 0 0 0 0 0 0 0 0 0 0 0 0 0 0 0 0 0 0 0 0 0 0 0 0 0 0 0 0 0 0 0 0 0 0 0 0 0 0 0 0 0 0 0 0
0 0 0 0 0 0 0 0 0 0 0 0 0 0 0 0 0 0 0 0 0 0 0 0 0 0 0 0 0 0 0 0 0 0 0 0 0 0 0 0 0 0 0 0 0 0 0 0 0 0 0 0 0 0
0 0 0 0 0 0 0 0 0 0 0 0 0 0 0 0 0 0 0 0 0 0 0 0 0 0 0 0 0 0 0 0 0 0 0 0 0 0 0 0 0 0 0 0 0 0 0 0 0 0 0 0 0 0
0 0 0 0 0 0 0 0 0 0 0 0 0 0 0 0 0 0 0 0 0 0 0 0 0 0 0 0 0 0 0 0 0 0 0 0 0 0 0 0 0 0 0 0 0 0 0 0 0 0 0 0 0 0
0 0 0 0 0 0 0 0 0 0 0 0 0 0 0 0 0 0 0 0 0 0 0 0 0 0 0 0 0 0 0 0 0 0 0 0 0 0 0 0 0 0 0 0 0 0 0 0 0 0 0 0 0 0
-1 0 0 0 0 0 0 0 0 0 0 0 0 0 0 0 0 0 0 0 0 0 0 0 0 0 0 0 0 0 0 0 0 0 0 0 0 0 0 0 0 0 0 0 0 0 0 0 0 0 0 0 0 0
0 0 0 0 0 0 0 0 0 0 0 0 0 0 0 0 0 0 0 0 0 0 0 0 0 0 0 0 0 0 0 0 0 0 0 0 0 0 0 0 0 0 0 0 0 0 0 0 0 0 0 0 0 0
0 0 0 0 0 0 0 0 0 0 0 0 0 0 0 0 0 0 0 0 0 0 0 0 0 0 0 0 0 0 0 0 0 0 0 0 0 0 0 0 0 0 0 0 0 0 0 0 0 0 0 0 0 0
0 0 0 0 0 0 0 0 0 0 0 0 0 0 0 0 0 0 0 0 0 0 0 0 0 0 0 0 0 0 0 0 0 0 0 0 0 0 0 0 0 0 0 0 0 0 0 0 0 0 0 0 0 0
0 0 0 0 0 0 0 0 0 0 0 0 0 0 0 0 0 0 0 0 0 0 0 0 0 0 0 0 0 0 0 0 0 0 0 0 0 0 0 0 0 0 0 0 0 0 0 0 0 0 0 0 0 0
0 0 0 0 0 0 0 0 0 0 0 0 0 0 0 0 0 0 0 0 0 0 0 0 0 0 0 0 0 0 0 0 0 0 0 0 0 0 0 0 0 0 0 0 0 0 0 0 0 0 0 0 0 0
Wind_Speed
13 12 13 12 10 9 9 10 12 14 15 16 18 18 19 19 19 10 3 10 9 3 4 6 10 8 4 8 8 4 2 3 4 6 5 7 6 7 9 4 11 10 7 6 10 10 15 2 4 8 2 3 4 9
12 11 10 12 11 12 13 14 16 16 17 18 19 19 20 21 21 19 5 6 7 3 2 5 8 12 12 11 7 4 5 6 7 5 5 5 8 3 3 6 1 7 7 4 8 6 2 2 3 5 3 7 6 11
13 13 12 13 13 15 16 18 18 20 20 21 22 23 23 23 23 21 7 7 5 6 6 8 12 10 12 12 10 9 3 8 6 4 1 3 9 6 7 7 5 5 5 4 2 4 2 3 4 2 4 9 11 15
13 14 14 15 16 16 17 18 19 20 21 21 22 23 24 26 26 24 9 7 10 2 5 7 7 17 9 14 17 13 11 4 3 2 3 4 5 3 3 2 6 3 9 8 6 2 4 5 4 8 13 17 18 15
13 14 14 15 15 17 18 15 19 24 28 31 32 32 33 34 35 23 12 9 14 11 4 5 4 9 16 16 21 16 12 7 3 4 4 5 4 4 2 1 3 5 6 5 5 8 4 7 11 14 16 16 17 19
12 13 13 15 17 14 19 25 30 31 19 20 26 25 22 19 16 7 6 9 16 11 2 4 3 3 12 14 13 16 12 7 6 5 4 4 4 3 3 4 6 8 5 9 5 10 4 16 14 13 14 15 16 16
12 12 14 15 14 21 29 19 18 19 23 20 24 26 25 23 11 4 5 8 23 10 3 3 4 2 8 7 6 5 7 4 4 4 6 7 5 2 3 4 3 4 6 6 15 16 9 11 9 12 16 17 18 16
11 13 12 15 23 23 12 15 8 8 16 11 21 26 24 21 14 4 1 27 21 8 4 3 4 3 8 5 5 5 6 6 5 4 3 4 3 4 6 8 9 5 7 13 16 1 12 18 15 16 17 18 18 15
12 11 17 22 16 12 15 17 18 9 9 9 10 23 13 4 3 3 17 29 6 3 6 5 5 4 4 3 3 3 3 6 4 6 5 6 6 8 9 11 8 11 11 14 12 16 19 21 19 18 17 16 17 15
10 18 26 8 11 13 16 15 4 8 6 8 6 4 4 5 35 24 5 3 3 2 2 4 4 4 5 3 3 5 3 4 4 5 4 5 6 9 7 8 8 12 16 18 17 11 14 17 18 19 16 14 15 15
19 4 6 9 11 11 10 7 5 8 2 2 1 3 16 17 5 2 4 5 5 6 4 2 3 6 1 4 4 2 3 4 4 4 5 4 5 6 9 9 10 14 16 12 9 13 15 20 20 18 15 15 15 16
6 7 6 4 7 9 9 9 12 4 0 6 9 4 3 3 3 4 4 4 4 5 5 6 4 4 3 2 3 3 3 2 4 7 4 5 4 5 9 10 11 13 13 12 15 17 17 17 15 16 16 15 14 13
9 4 3 7 12 8 4 4 4 8 3 3 4 4 3 0 4 5 7 4 5 7 6 5 6 4 2 2 2 3 5 5 5 3 4 5 4 7 10 11 10 11 13 14 14 15 17 16 14 16 15 11 14 13
5 3 7 8 14 10 5 5 7 5 3 3 3 2 2 2 3 3 3 5 3 7 9 6 4 3 3 3 2 3 2 4 4 4 6 2 9 9 9 10 13 13 13 14 14 16 16 15 12 11 11 12 14 13
4 5 7 7 13 7 5 4 7 4 3 4 2 3 1 0 1 1 2 3 3 8 6 6 3 1 1 4 2 3 3 4 5 5 2 0 9 10 9 10 12 12 12 11 11 12 13 13 13 12 9 10 12 11
4 8 2 11 11 7 6 6 5 3 4 3 5 2 3 2 3 2 5 7 2 5 3 3 3 2 2 2 4 5 5 5 2 3 2 4 9 9 9 8 8 8 10 11 10 11 12 11 13 12 10 9 10 12
5 2 9 11 5 6 9 4 3 5 3 3 3 2 1 3 2 2 3 2 2 3 2 3 4 3 3 2 3 1 2 1 3 2 1 3 7 9 9 10 9 10 10 10 11 10 10 10 12 12 11 7 9 9
1 5 12 8 2 4 3 4 3 4 5 3 2 3 2 3 2 3 3 2 1 2 2 2 2 3 3 2 1 1 0 1 3 3 2 5 8 8 8 11 9 10 11 9 10 10 11 12 11 8 11 11 9 8
2 3 8 4 4 5 4 4 3 4 3 2 1 2 2 3 4 2 2 3 2 2 4 3 5 3 2 2 2 2 0 1 2 2 3 5 8 9 10 10 10 10 10 10 11 8 8 7 8 9 10 10 9 8
2 7 12 9 3 4 4 3 2 4 3 2 2 3 3 2 1 2 5 5 3 4 6 5 3 2 2 3 3 2 2 4 6 5 4 5 6 9 8 8 7 10 9 10 8 9 8 7 6 8 9 9 10 10
5 4 7 4 3 5 4 2 4 2 2 3 2 2 2 2 3 4 4 4 5 5 4 3 2 2 4 3 4 3 4 3 2 2 4 5 4 7 7 7 8 7 7 7 7 7 6 7 7 8 9 8 7 8
3 8 3 4 4 4 4 3 3 1 3 1 2 2 3 3 3 4 2 8 4 3 3 2 3 3 4 5 5 6 4 6 7 7 9 9 6 6 6 7 7 6 6 6 7 8 7 6 7 8 7 7 6 7
3 4 4 4 5 5 1 1 4 3 4 2 2 4 3 3 1 1 6 4 3 3 3 2 3 3 3 3 4 5 5 5 5 4 4 4 4 4 5 5 5 6 6 5 5 6 6 7 7 7 7 7 7 6
5 5 5 4 4 2 2 4 2 3 3 3 3 3 2 1 2 4 4 3 3 4 5 7 4 2 2 4 4 3 4 4 5 4 3 5 4 2 3 4 4 4 3 6 6 6 6 7 8 7 8 8 8 8
8 7 5 5 3 5 5 4 4 4 3 2 3 2 1 1 4 4 3 2 3 4 5 5 4 5 3 2 2 2 2 1 3 4 3 3 4 5 3 2 3 3 4 6 6 7 7 7 7 8 9 9 11 11
7 4 4 3 3 4 1 3 1 3 3 3 1 1 2 4 5 3 2 1 2 3 4 5 4 3 5 5 3 3 4 2 1 1 3 4 5 3 4 5 4 4 6 5 6 8 8 8 9 11 10 11 10 11
6 4 2 3 1 2 4 3 3 4 3 3 2 3 3 5 2 2 2 3 3 3 4 5 4 5 4 4 3 4 4 3 1 1 1 3 3 4 4 4 5 3 7 9 8 8 11 10 10 10 9 8 9 10
3 4 3 5 4 3 4 3 3 2 1 1 4 5 4 4 3 1 2 4 5 5 2 3 4 4 3 4 4 4 3 4 2 3 3 3 2 0 2 2 2 4 5 7 8 7 8 9 9 10 10 9 8 9
2 3 2 5 4 4 3 2 1 2 3 2 5 3 3 3 2 2 3 5 5 3 4 5 5 4 3 2 4 5 5 6 4 5 4 2 3 2 1 2 2 2 3 5 8 7 10 8 9 9 10 8 6 6
4 2 4 2 4 2 2 1 2 3 4 3 5 4 3 2 2 3 4 4 5 4 3 3 3 4 4 4 4 5 4 5 5 3 2 2 3 5 3 2 2 3 4 5 6 7 9 8 9 6 7 6 6 6
3 2 4 3 2 2 1 2 3 3 3 4 3 4 3 3 1 2 5 4 3 3 4 4 4 5 5 5 4 4 5 3 8 7 5 4 3 2 2 1 2 3 4 5 6 7 7 5 5 7 8 8 8 8
4 2 3 2 0 1 2 1 2 3 2 3 2 2 2 3 2 2 3 3 3 4 5 4 3 3 5 4 3 3 4 5 6 5 6 4 3 3 3 2 2 2 4 5 5 5 7 7 6 7 8 9 9 8
1 2 2 2 2 1 1 3 3 3 3 3 2 2 2 2 3 0 2 1 1 2 4 5 4 4 4 5 5 5 5 4 6 8 8 7 7 6 4 4 4 5 5 5 4 5 6 7 7 8 9 9 10 10
Wind_Direction
240 242 235 224 224 225 226 228 229 230 228 223 223 221 220 218 215 199 177 182 185 223 213 195 194 192 159 195 210 179 181 212 200 221 221 226 237 220 225 227 210 214 206 192 221 225 246 107 141 207 117 29 117 124
235 233 231 227 232 239 240 241 240 239 238 238 236 234 233 229 224 208 200 167 177 199 288 236 228 217 213 199 187 197 226 192 198 190 217 236 237 246 204 228 146 227 221 212 218 217 55 345 297 304 175 138 155 130
232 238 240 241 244 249 250 251 246 248 244 241 238 236 233 231 228 215 199 147 171 220 249 236 224 230 232 219 198 209 227 229 242 211 207 221 250 174 180 223 199 231 173 237 216 182 215 78 32 349 134 120 118 125
236 239 242 247 252 256 257 256 256 254 253 250 245 244 246 241 235 221 202 177 181 153 229 249 215 214 206 207 211 220 223 212 147 21 251 239 294 262 203 234 214 209 155 194 241 146 84 63 134 128 115 116 120 125
233 242 247 253 261 266 269 268 279 277 268 260 254 248 242 237 230 221 210 191 190 181 219 229 159 210 208 198 203 208 218 230 227 237 229 268 218 220 224 182 231 195 179 180 244 189 158 158 151 139 132 132 129 128
240 249 260 266 271 276 296 279 267 262 251 246 239 233 227 229 214 157 169 195 192 189 305 295 333 249 199 186 189 211 218 217 207 208 204 230 233 268 239 217 242 217 210 211 212 153 142 137 139 134 124 129 122 119
247 258 269 274 298 287 278 274 275 263 259 254 238 230 226 214 191 164 187 152 165 158 169 247 307 201 156 146 177 184 183 187 201 229 238 240 246 187 305 257 230 244 230 157 126 111 116 147 140 126 127 119 110 109
258 270 283 301 281 283 266 280 310 288 273 268 235 208 201 181 134 184 282 157 144 129 173 226 245 211 156 145 147 173 166 179 213 217 224 201 188 211 245 244 257 199 151 154 164 117 144 119 120 127 124 127 120 121
269 281 286 281 276 258 271 284 287 283 290 49 53 186 147 84 116 135 138 146 124 144 171 191 202 169 143 123 116 133 148 179 206 195 214 163 203 221 220 231 196 176 172 155 124 125 131 132 139 139 138 135 127 134
303 283 283 227 250 272 288 305 126 196 251 72 30 65 102 130 113 110 80 119 145 227 204 218 141 165 144 142 132 149 203 142 172 218 167 228 238 230 209 215 195 170 144 139 129 138 133 140 147 151 151 142 138 144
287 206 179 242 266 290 309 306 319 214 278 119 100 65 115 119 83 111 142 167 165 168 197 179 161 133 97 147 136 214 171 173 202 191 200 233 249 209 202 186 160 153 156 152 152 146 155 151 149 144 142 141 146 148
183 181 249 300 306 319 335 13 11 113 158 100 108 111 81 80 98 154 138 150 191 176 158 154 132 127 139 136 121 181 168 162 234 149 212 250 236 176 145 132 136 142 145 136 134 141 143 143 145 138 140 144 144 132
171 211 316 355 342 341 49 129 273 107 92 68 67 84 133 309 51 147 165 170 166 170 159 156 137 129 129 140 137 167 168 202 129 187 234 236 154 154 142 128 112 114 119 111 119 129 130 128 132 138 129 126 127 129
177 287 311 326 342 348 53 200 203 167 81 97 116 110 153 225 208 181 167 152 151 152 136 119 109 134 140 142 143 161 120 149 208 226 233 221 178 148 146 136 133 132 125 127 132 132 129 125 117 117 124 133 134 138
227 286 333 332 346 349 80 87 72 59 64 73 50 79 75 352 83 118 122 101 117 140 127 111 88 115 111 124 201 115 154 217 220 232 284 203 147 140 139 136 130 131 133 131 131 128 123 127 128 117 123 131 128 133
247 312 274 342 339 11 95 63 36 48 47 51 40 38 3 75 84 78 107 117 100 114 93 80 103 130 161 161 162 206 173 220 273 323 329 152 145 135 127 119 114 118 123 123 123 126 122 130 134 129 114 122 138 144
338 279 326 328 354 57 52 76 46 43 53 40 32 21 15 69 65 53 59 58 24 70 114 127 128 167 121 156 156 278 254 3 337 346 51 145 142 127 114 108 111 118 118 119 117 115 114 113 120 125 136 147 141 142
20 301 326 329 109 63 43 42 78 68 60 22 55 348 27 27 44 47 29 21 22 102 70 72 90 61 42 47 330 332 216 90 35 32 52 104 108 109 117 123 120 121 120 115 118 120 124 135 141 143 137 146 130 136
218 325 353 36 125 92 74 31 34 85 41 358 19 23 39 61 35 25 31 342 29 48 86 52 57 43 28 357 320 324 232 159 140 70 65 74 102 108 109 105 108 113 120 129 137 140 145 147 146 149 150 157 154 156
347 19 11 31 78 84 77 37 42 75 42 25 22 26 62 54 327 7 35 17 32 52 47 46 32 2 335 331 340 351 50 123 131 119 86 76 96 107 115 128 126 126 116 113 112 128 129 125 143 154 163 164 157 166
33 350 358 46 55 61 77 59 54 84 141 85 344 46 51 18 35 18 27 349 56 35 66 28 356 349 358 19 40 64 97 125 123 131 138 122 101 111 109 113 124 131 137 148 151 153 161 167 161 163 161 167 165 167
326 354 52 21 74 68 80 12 106 132 76 95 55 48 47 41 18 22 349 40 60 22 27 1 348 349 26 32 31 41 59 83 90 89 89 120 131 134 146 153 147 152 160 167 166 167 170 159 159 161 164 161 160 164
13 38 40 29 75 50 358 344 71 27 71 12 34 47 27 36 30 0 73 52 62 5 356 357 351 359 52 44 50 47 42 79 90 98 111 99 110 113 133 156 154 153 161 178 168 163 164 156 155 156 150 154 162 168
31 52 48 46 50 102 4 33 55 66 50 57 65 67 25 27 4 62 76 61 13 349 12 2 0 23 17 25 42 44 46 75 94 99 122 130 128 143 159 167 175 181 168 152 164 159 157 163 152 157 160 166 175 177
66 354 61 2 354 61 50 30 14 60 72 47 79 22 315 27 79 72 92 96 19 17 2 348 6 23 39 8 27 53 47 118 130 132 168 146 121 123 138 167 198 196 161 153 167 169 167 160 166 169 173 178 182 187
67 333 53 24 333 87 161 93 111 140 110 79 75 346 38 72 69 85 84 23 355 7 352 349 347 10 35 15 17 11 347 343 120 108 177 185 185 169 179 178 185 211 197 182 158 176 173 177 177 176 183 189 186 185
51 353 359 30 359 87 61 40 61 87 90 140 203 63 67 76 128 113 86 32 342 351 311 329 18 46 38 13 352 349 352 14 33 346 310 193 186 190 167 181 207 223 172 179 175 175 178 179 183 185 189 188 193 194
46 30 60 336 42 13 109 71 55 66 104 44 70 51 111 148 136 347 344 340 316 301 355 33 31 24 27 15 0 356 355 348 65 64 73 71 56 214 208 200 211 160 164 176 176 169 175 177 181 185 191 199 197 196
35 330 85 26 31 36 42 112 158 61 10 76 106 118 117 71 360 329 320 332 328 25 48 27 10 355 25 14 22 28 30 22 47 53 46 12 354 14 325 235 197 169 165 163 172 171 178 174 178 184 188 192 186 175
335 14 86 54 76 34 273 348 69 68 38 79 104 103 85 69 9 338 5 10 21 28 19 24 3 29 34 28 359 357 24 37 34 39 19 346 309 305 310 232 192 167 158 159 160 158 158 144 136 129 143 149 154 157
334 50 69 63 113 244 199 125 98 88 64 57 36 90 122 142 152 14 23 6 2 18 37 19 13 23 21 17 19 6 348 353 355 339 326 304 307 352 22 44 151 154 157 154 150 150 148 151 155 153 159 160 161 158
358 61 121 101 233 200 155 194 96 87 94 78 67 84 83 75 59 358 357 355 19 23 5 358 0 338 338 324 309 304 272 294 311 318 337 351 23 42 50 50 71 127 143 143 142 145 159 154 155 156 152 148 148 142
3 32 48 91 93 193 214 107 66 90 56 91 92 115 84 107 135 257 320 34 352 329 322 309 296 293 307 320 328 326 331 330 346 7 16 36 48 50 49 48 56 68 84 92 108 130 140 141 138 133 129 128 121 117